Time,TemperatureF,DewpointF,PressureIn,WindDirection,WindDirectionDegrees,WindSpeedMPH,WindSpeedGustMPH,Humidity,HourlyPrecipIn,Conditions,Clouds,dailyrainin,SoftwareType,DateUTC
2013-04-10 00:03:00,66.0,54.0,-100.00,South,180,4.0,8.0,65,0.00,,,-99.99,,2013-04-10 04:03:00,
2013-04-10 00:13:00,66.0,54.0,-100.00,South,175,4.0,8.0,66,0.00,,,-99.99,,2013-04-10 04:13:00,
2013-04-10 00:23:00,66.0,54.0,-100.00,South,185,6.0,8.0,66,0.00,,,-99.99,,2013-04-10 04:23:00,
2013-04-10 00:33:00,65.0,55.0,-100.00,South,185,6.0,9.0,67,0.00,,,-99.99,,2013-04-10 04:33:00,
2013-04-10 00:43:00,65.0,55.0,-100.00,South,180,6.0,8.0,68,0.00,,,-99.99,,2013-04-10 04:43:00,
2013-04-10 00:52:00,66.0,55.0,-100.00,South,190,1.0,7.0,68,0.00,,,-99.99,,2013-04-10 04:52:00,
2013-04-10 01:03:00,67.0,55.0,-100.00,South,170,1.0,6.0,67,0.00,,,-99.99,,2013-04-10 05:03:00,
2013-04-10 01:13:00,67.0,55.0,-100.00,South,185,2.0,11.0,66,0.00,,,-99.99,,2013-04-10 05:13:00,
2013-04-10 01:23:00,66.0,55.0,-100.00,South,190,6.0,11.0,68,0.00,,,-99.99,,2013-04-10 05:23:00,
2013-04-10 01:33:00,66.0,56.0,-100.00,South,185,9.0,12.0,68,0.00,,,-99.99,,2013-04-10 05:33:00,
2013-04-10 01:42:00,67.0,56.0,-100.00,South,190,7.0,14.0,67,0.00,,,-99.99,,2013-04-10 05:42:00,
2013-04-10 01:53:00,67.0,56.0,-100.00,South,180,3.0,11.0,69,0.00,,,-99.99,,2013-04-10 05:53:00,
2013-04-10 02:03:00,67.0,57.0,-100.00,SSW,205,2.0,11.0,70,0.00,,,-99.99,,2013-04-10 06:03:00,
2013-04-10 02:12:00,67.0,57.0,-100.00,SSW,210,1.0,7.0,70,0.00,,,-99.99,,2013-04-10 06:12:00,
2013-04-10 02:22:00,67.0,57.0,-100.00,South,185,2.0,7.0,70,0.00,,,-99.99,,2013-04-10 06:22:00,
2013-04-10 02:32:00,67.0,57.0,-100.00,SSW,205,1.0,9.0,71,0.00,,,-99.99,,2013-04-10 06:32:00,
2013-04-10 02:42:00,67.0,58.0,-100.00,South,180,6.0,12.0,71,0.00,,,-99.99,,2013-04-10 06:42:00,
2013-04-10 02:52:00,67.0,58.0,-100.00,South,180,3.0,15.0,72,0.00,,,-99.99,,2013-04-10 06:52:00,
2013-04-10 03:02:00,67.0,58.0,-100.00,South,180,8.0,14.0,73,0.00,,,-99.99,,2013-04-10 07:02:00,
2013-04-10 03:12:00,66.0,58.0,-100.00,South,180,7.0,12.0,74,0.00,,,-99.99,,2013-04-10 07:12:00,
2013-04-10 03:22:00,66.0,58.0,-100.00,South,190,6.0,12.0,75,0.00,,,-99.99,,2013-04-10 07:22:00,
2013-04-10 03:32:00,66.0,58.0,-100.00,South,185,2.0,11.0,75,0.00,,,-99.99,,2013-04-10 07:32:00,
2013-04-10 03:42:00,65.0,58.0,-100.00,SSW,195,9.0,12.0,76,0.00,,,-99.99,,2013-04-10 07:42:00,
2013-04-10 03:52:00,65.0,58.0,-100.00,South,190,1.0,11.0,77,0.00,,,-99.99,,2013-04-10 07:52:00,
2013-04-10 04:02:00,65.0,58.0,-100.00,South,185,4.0,11.0,77,0.00,,,-99.99,,2013-04-10 08:02:00,
2013-04-10 04:12:00,65.0,58.0,-100.00,South,185,0.0,9.0,78,0.00,,,-99.99,,2013-04-10 08:12:00,
2013-04-10 04:22:00,65.0,58.0,-100.00,South,190,1.0,4.0,78,0.00,,,-99.99,,2013-04-10 08:22:00,
2013-04-10 04:32:00,64.0,58.0,-100.00,South,175,1.0,6.0,79,0.00,,,-99.99,,2013-04-10 08:32:00,
2013-04-10 04:42:00,64.0,58.0,-100.00,South,185,2.0,9.0,79,0.00,,,-99.99,,2013-04-10 08:42:00,
2013-04-10 04:52:00,64.0,58.0,-100.00,South,180,7.0,11.0,80,0.00,,,-99.99,,2013-04-10 08:52:00,
2013-04-10 05:02:00,65.0,58.0,-100.00,South,185,8.0,14.0,79,0.00,,,-99.99,,2013-04-10 09:02:00,
2013-04-10 05:12:00,65.0,58.0,-100.00,South,185,8.0,12.0,78,0.00,,,-99.99,,2013-04-10 09:12:00,
2013-04-10 05:22:00,65.0,58.0,-100.00,South,190,3.0,12.0,78,0.00,,,-99.99,,2013-04-10 09:22:00,
2013-04-10 05:32:00,65.0,58.0,-100.00,South,185,7.0,12.0,78,0.00,,,-99.99,,2013-04-10 09:32:00,
2013-04-10 05:43:00,65.0,58.0,-100.00,South,185,3.0,9.0,79,0.00,,,-99.99,,2013-04-10 09:43:00,
2013-04-10 05:52:00,64.0,58.0,-100.00,South,170,1.0,9.0,80,0.00,,,-99.99,,2013-04-10 09:52:00,
2013-04-10 06:03:00,64.0,58.0,-100.00,South,185,6.0,12.0,80,0.00,,,-99.99,,2013-04-10 10:03:00,
2013-04-10 06:13:00,65.0,58.0,-100.00,South,190,8.0,12.0,80,0.00,,,-99.99,,2013-04-10 10:13:00,
2013-04-10 06:23:00,65.0,58.0,-100.00,South,180,9.0,12.0,79,0.00,,,-99.99,,2013-04-10 10:23:00,
2013-04-10 06:33:00,65.0,58.0,-100.00,South,185,7.0,13.0,79,0.00,,,-99.99,,2013-04-10 10:33:00,
2013-04-10 06:43:00,65.0,58.0,-100.00,South,180,9.0,12.0,79,0.00,,,-99.99,,2013-04-10 10:43:00,
2013-04-10 06:52:00,65.0,59.0,-100.00,South,175,7.0,12.0,81,0.00,,,-99.99,,2013-04-10 10:52:00,
2013-04-10 07:02:00,65.0,59.0,-100.00,South,185,8.0,13.0,81,0.00,,,-99.99,,2013-04-10 11:02:00,
2013-04-10 07:12:00,65.0,59.0,-100.00,South,180,7.0,12.0,81,0.00,,,-99.99,,2013-04-10 11:12:00,
2013-04-10 07:22:00,65.0,59.0,-100.00,South,175,7.0,15.0,81,0.00,,,-99.99,,2013-04-10 11:22:00,
2013-04-10 07:32:00,64.0,59.0,-100.00,South,190,7.0,12.0,82,0.00,,,-99.99,,2013-04-10 11:32:00,
2013-04-10 07:42:00,65.0,59.0,-100.00,South,180,9.0,13.0,81,0.00,,,-99.99,,2013-04-10 11:42:00,
2013-04-10 07:52:00,65.0,59.0,-100.00,South,185,7.0,12.0,80,0.00,,,-99.99,,2013-04-10 11:52:00,
2013-04-10 08:03:00,65.0,59.0,-100.00,South,185,9.0,12.0,80,0.00,,,-99.99,,2013-04-10 12:03:00,
2013-04-10 08:12:00,66.0,59.0,-100.00,South,175,9.0,14.0,79,0.00,,,-99.99,,2013-04-10 12:12:00,
2013-04-10 08:23:00,66.0,59.0,-100.00,South,170,10.0,16.0,78,0.00,,,-99.99,,2013-04-10 12:23:00,
2013-04-10 08:33:00,66.0,59.0,-100.00,SSW,195,9.0,12.0,78,0.00,,,-99.99,,2013-04-10 12:33:00,
2013-04-10 08:42:00,66.0,59.0,-100.00,SSW,195,9.0,12.0,78,0.00,,,-99.99,,2013-04-10 12:42:00,
2013-04-10 08:52:00,67.0,59.0,-100.00,South,180,9.0,17.0,76,0.00,,,-99.99,,2013-04-10 12:52:00,
2013-04-10 09:02:00,67.0,59.0,-100.00,South,190,12.0,16.0,75,0.00,,,-99.99,,2013-04-10 13:02:00,
2013-04-10 09:12:00,68.0,59.0,-100.00,SSW,195,14.0,22.0,74,0.00,,,-99.99,,2013-04-10 13:12:00,
2013-04-10 09:23:00,69.0,60.0,-100.00,South,190,12.0,25.0,73,0.00,,,-99.99,,2013-04-10 13:23:00,
2013-04-10 09:32:00,69.0,60.0,-100.00,South,180,14.0,22.0,73,0.00,,,-99.99,,2013-04-10 13:32:00,
2013-04-10 09:43:00,67.0,60.0,-100.00,South,185,14.0,25.0,78,-99.99,,,-99.99,,2013-04-10 13:43:00,
2013-04-10 09:52:00,65.0,61.0,-100.00,South,190,13.0,21.0,85,0.00,,,-99.99,,2013-04-10 13:52:00,
2013-04-10 10:02:00,66.0,61.0,-100.00,South,180,11.0,19.0,83,0.00,,,-99.99,,2013-04-10 14:02:00,
2013-04-10 10:12:00,67.0,61.0,-100.00,South,190,11.0,20.0,81,0.00,,,-99.99,,2013-04-10 14:12:00,
2013-04-10 10:22:00,67.0,61.0,-100.00,South,175,9.0,19.0,80,0.00,,,-99.99,,2013-04-10 14:22:00,
2013-04-10 10:33:00,67.0,61.0,-100.00,South,185,14.0,25.0,79,0.00,,,-99.99,,2013-04-10 14:33:00,
2013-04-10 10:42:00,68.0,61.0,-100.00,SSW,195,12.0,18.0,79,0.00,,,-99.99,,2013-04-10 14:42:00,
2013-04-10 10:52:00,68.0,61.0,-100.00,South,185,12.0,19.0,79,0.00,,,-99.99,,2013-04-10 14:52:00,
2013-04-10 11:03:00,70.0,62.0,-100.00,South,185,11.0,21.0,76,0.00,,,-99.99,,2013-04-10 15:03:00,
2013-04-10 11:12:00,71.0,63.0,-100.00,SSW,195,11.0,25.0,74,0.00,,,-99.99,,2013-04-10 15:12:00,
2013-04-10 11:22:00,71.0,62.0,-100.00,SW,235,9.0,19.0,73,0.00,,,-99.99,,2013-04-10 15:22:00,
2013-04-10 11:33:00,71.0,63.0,-100.00,South,180,6.0,18.0,74,0.00,,,-99.99,,2013-04-10 15:33:00,
2013-04-10 11:42:00,72.0,63.0,-100.00,South,190,7.0,12.0,73,0.00,,,-99.99,,2013-04-10 15:42:00,
2013-04-10 11:52:00,72.0,63.0,-100.00,SW,215,6.0,17.0,73,0.00,,,-99.99,,2013-04-10 15:52:00,
2013-04-10 12:03:00,73.0,64.0,-100.00,SSW,195,7.0,19.0,73,0.00,,,-99.99,,2013-04-10 16:03:00,
2013-04-10 12:13:00,74.0,64.0,-100.00,South,185,11.0,19.0,70,0.00,,,-99.99,,2013-04-10 16:13:00,
2013-04-10 12:23:00,73.0,64.0,-100.00,South,180,12.0,24.0,72,0.00,,,-99.99,,2013-04-10 16:23:00,
2013-04-10 12:33:00,73.0,63.0,-100.00,SSW,200,15.0,26.0,72,0.00,,,-99.99,,2013-04-10 16:33:00,
2013-04-10 12:43:00,74.0,64.0,-100.00,South,185,12.0,21.0,70,0.00,,,-99.99,,2013-04-10 16:43:00,
2013-04-10 12:52:00,74.0,64.0,-100.00,South,185,8.0,22.0,70,0.00,,,-99.99,,2013-04-10 16:52:00,
2013-04-10 13:03:00,74.0,64.0,-100.00,South,180,16.0,25.0,70,0.00,,,-99.99,,2013-04-10 17:03:00,
2013-04-10 13:12:00,75.0,64.0,-100.00,SSW,195,15.0,25.0,68,0.00,,,-99.99,,2013-04-10 17:12:00,
2013-04-10 13:22:00,76.0,64.0,-100.00,South,190,15.0,27.0,68,0.00,,,-99.99,,2013-04-10 17:22:00,
2013-04-10 13:33:00,76.0,64.0,-100.00,South,185,17.0,25.0,67,0.00,,,-99.99,,2013-04-10 17:33:00,
2013-04-10 13:43:00,77.0,65.0,-100.00,South,175,16.0,23.0,65,0.00,,,-99.99,,2013-04-10 17:43:00,
2013-04-10 13:52:00,76.0,64.0,-100.00,South,190,17.0,25.0,66,0.00,,,-99.99,,2013-04-10 17:52:00,
2013-04-10 14:03:00,77.0,64.0,-100.00,South,185,16.0,24.0,66,0.00,,,-99.99,,2013-04-10 18:03:00,
2013-04-10 14:12:00,78.0,65.0,-100.00,South,175,16.0,28.0,65,0.00,,,-99.99,,2013-04-10 18:12:00,
2013-04-10 14:23:00,78.0,65.0,-100.00,South,185,17.0,27.0,63,0.00,,,-99.99,,2013-04-10 18:23:00,
2013-04-10 14:33:00,78.0,64.0,-100.00,South,180,17.0,27.0,62,0.00,,,-99.99,,2013-04-10 18:33:00,
2013-04-10 14:42:00,78.0,64.0,-100.00,South,175,20.0,28.0,61,0.00,,,-99.99,,2013-04-10 18:42:00,
2013-04-10 14:52:00,78.0,64.0,-100.00,South,185,16.0,29.0,62,0.00,,,-99.99,,2013-04-10 18:52:00,
2013-04-10 15:03:00,78.0,63.0,-100.00,SW,215,12.0,27.0,60,0.00,,,-99.99,,2013-04-10 19:03:00,
2013-04-10 15:12:00,78.0,63.0,-100.00,South,185,11.0,23.0,60,0.00,,,-99.99,,2013-04-10 19:12:00,
2013-04-10 15:22:00,78.0,63.0,-100.00,SSW,200,11.0,22.0,60,0.00,,,-99.99,,2013-04-10 19:22:00,
2013-04-10 15:33:00,77.0,62.0,-100.00,SSW,200,9.0,21.0,59,0.00,,,-99.99,,2013-04-10 19:33:00,
2013-04-10 15:42:00,77.0,62.0,-100.00,SW,230,6.0,19.0,60,0.00,,,-99.99,,2013-04-10 19:42:00,
2013-04-10 15:52:00,65.0,58.0,-100.00,NW,325,12.0,22.0,77,0.00,,,-99.99,,2013-04-10 19:52:00,
2013-04-10 16:03:00,63.0,59.0,-100.00,NW,320,13.0,16.0,86,0.00,,,-99.99,,2013-04-10 20:03:00,
2013-04-10 16:12:00,62.0,60.0,-100.00,NW,310,9.0,19.0,92,-99.99,,,-99.99,,2013-04-10 20:12:00,
2013-04-10 16:23:00,61.0,60.0,-100.00,WNW,285,4.0,9.0,95,14.72,,,-99.99,,2013-04-10 20:23:00,
2013-04-10 16:33:00,62.0,61.0,-100.00,South,180,7.0,11.0,96,1.10,,,-99.99,,2013-04-10 20:33:00,
2013-04-10 16:42:00,63.0,62.0,-100.00,South,190,1.0,7.0,96,0.00,,,-99.99,,2013-04-10 20:42:00,
2013-04-10 16:52:00,64.0,62.0,-100.00,NNW,335,3.0,5.0,95,0.00,,,-99.99,,2013-04-10 20:52:00,
2013-04-10 17:03:00,64.0,62.0,-100.00,West,265,1.0,4.0,95,0.00,,,-99.99,,2013-04-10 21:03:00,
2013-04-10 17:13:00,64.0,63.0,-100.00,South,170,0.0,6.0,94,0.00,,,-99.99,,2013-04-10 21:13:00,
2013-04-10 17:22:00,64.0,62.0,-100.00,NNW,335,4.0,6.0,93,3.94,,,-99.99,,2013-04-10 21:22:00,
2013-04-10 17:33:00,64.0,62.0,-100.00,West,280,1.0,4.0,93,10.75,,,-99.99,,2013-04-10 21:33:00,
2013-04-10 17:43:00,64.0,62.0,-100.00,WSW,245,4.0,10.0,95,0.55,,,-99.99,,2013-04-10 21:43:00,
2013-04-10 17:53:00,64.0,63.0,-100.00,NW,310,4.0,9.0,96,0.00,,,-99.99,,2013-04-10 21:53:00,
2013-04-10 18:03:00,64.0,63.0,-100.00,WNW,290,1.0,7.0,96,7.91,,,-99.99,,2013-04-10 22:03:00,
2013-04-10 18:13:00,64.0,63.0,-100.00,WNW,300,12.0,19.0,96,0.00,,,-99.99,,2013-04-10 22:13:00,
2013-04-10 18:23:00,61.0,57.0,-100.00,NW,310,25.0,56.0,85,0.55,,,-99.99,,2013-04-10 22:23:00,
2013-04-10 18:34:00,60.0,57.0,-100.00,NW,310,15.0,24.0,91,1.69,,,-99.99,,2013-04-10 22:34:00,
2013-04-10 18:42:00,58.0,57.0,-100.00,NW,315,8.0,17.0,96,-99.99,,,-99.99,,2013-04-10 22:42:00,
2013-04-10 18:52:00,58.0,57.0,-100.00,NNW,330,9.0,14.0,98,-99.99,,,-99.99,,2013-04-10 22:52:00,
2013-04-10 19:03:00,58.0,58.0,-100.00,NNW,345,6.0,9.0,98,7.91,,,-99.99,,2013-04-10 23:03:00,
2013-04-10 19:12:00,58.0,57.0,-100.00,North,355,5.0,9.0,99,1.69,,,-99.99,,2013-04-10 23:12:00,
2013-04-10 19:22:00,57.0,57.0,-100.00,NNW,330,7.0,10.0,99,0.00,,,-99.99,,2013-04-10 23:22:00,
2013-04-10 19:33:00,56.0,56.0,-100.00,North,0,7.0,12.0,98,-99.99,,,-99.99,,2013-04-10 23:33:00,
2013-04-10 19:42:00,55.0,55.0,-100.00,NNW,345,9.0,12.0,98,1.69,,,-99.99,,2013-04-10 23:42:00,
2013-04-10 19:52:00,53.0,53.0,-100.00,NE,40,5.0,12.0,98,13.03,,,-99.99,,2013-04-10 23:52:00,
2013-04-10 20:02:00,53.0,53.0,-100.00,NNE,20,3.0,12.0,99,-99.99,,,-99.99,,2013-04-11 00:02:00,
2013-04-10 20:13:00,52.0,52.0,-100.00,ENE,75,6.0,9.0,99,1.10,,,-99.99,,2013-04-11 00:13:00,
2013-04-10 20:22:00,53.0,53.0,-100.00,East,95,9.0,11.0,99,0.00,,,-99.99,,2013-04-11 00:22:00,
2013-04-10 20:32:00,53.0,53.0,-100.00,East,85,7.0,11.0,99,0.00,,,-99.99,,2013-04-11 00:32:00,
2013-04-10 20:42:00,52.0,52.0,-100.00,NE,50,6.0,9.0,99,0.00,,,-99.99,,2013-04-11 00:42:00,
2013-04-10 20:52:00,52.0,52.0,-100.00,NE,55,6.0,9.0,100,0.00,,,-99.99,,2013-04-11 00:52:00,
2013-04-10 21:02:00,52.0,52.0,-100.00,ENE,75,4.0,9.0,99,0.00,,,-99.99,,2013-04-11 01:02:00,
2013-04-10 21:12:00,52.0,52.0,-100.00,ENE,75,4.0,7.0,99,0.00,,,-99.99,,2013-04-11 01:12:00,
2013-04-10 21:22:00,52.0,52.0,-100.00,ENE,75,6.0,9.0,99,0.00,,,-99.99,,2013-04-11 01:22:00,
2013-04-10 21:32:00,52.0,52.0,-100.00,North,0,2.0,5.0,99,0.00,,,-99.99,,2013-04-11 01:32:00,
2013-04-10 21:42:00,52.0,51.0,-100.00,North,355,9.0,12.0,98,0.00,,,-99.99,,2013-04-11 01:42:00,
2013-04-10 21:52:00,51.0,51.0,-100.00,North,5,9.0,15.0,98,0.00,,,-99.99,,2013-04-11 01:52:00,
2013-04-10 22:03:00,51.0,50.0,-100.00,NNE,20,5.0,10.0,97,0.00,,,-99.99,,2013-04-11 02:03:00,
2013-04-10 22:12:00,51.0,50.0,-100.00,North,0,9.0,14.0,97,0.00,,,-99.99,,2013-04-11 02:12:00,
2013-04-10 22:22:00,51.0,50.0,-100.00,North,0,12.0,16.0,97,0.00,,,-99.99,,2013-04-11 02:22:00,
2013-04-10 22:32:00,50.0,49.0,-100.00,ENE,70,4.0,19.0,98,14.17,,,-99.99,,2013-04-11 02:32:00,
2013-04-10 22:42:00,50.0,49.0,-100.00,ENE,70,4.0,19.0,98,14.17,,,-99.99,,2013-04-11 02:42:00,
2013-04-10 22:52:00,50.0,49.0,-100.00,NNE,25,6.0,10.0,99,-99.99,,,-99.99,,2013-04-11 02:52:00,
2013-04-10 23:02:00,50.0,50.0,-100.00,ENE,70,9.0,12.0,100,4.53,,,-99.99,,2013-04-11 03:02:00,
2013-04-10 23:12:00,49.0,49.0,-100.00,East,95,12.0,16.0,100,5.67,,,-99.99,,2013-04-11 03:12:00,
2013-04-10 23:22:00,49.0,49.0,-100.00,East,80,12.0,17.0,100,0.00,,,-99.99,,2013-04-11 03:22:00,
2013-04-10 23:33:00,50.0,50.0,-100.00,East,85,11.0,16.0,100,2.24,,,-99.99,,2013-04-11 03:33:00,
2013-04-10 23:43:00,50.0,49.0,-100.00,East,100,11.0,16.0,99,0.00,,,-99.99,,2013-04-11 03:43:00,
2013-04-10 23:53:00,50.0,50.0,-100.00,East,90,9.0,17.0,99,0.00,,,-99.99,,2013-04-11 03:53:00,